Regional Weather Roundup
Issued by NWS

Home | Current Version | Previous Version | Graphics & Text | Print | Product List | Glossary On
Versions: 1 2 3 4 5 6 7 8 9 10 11 12 13 14 15 16 17 18 19 20 21 22 23 24 25 26 27 28 29 30 31 32 33 34 35 36 37 38 39 40 41 42 43 44 45 46 47 48 49 50
000
ASUS43 KBIS 291610
RWRND

NORTH DAKOTA REGIONAL WEATHER ROUNDUP
NATIONAL WEATHER SERVICE BISMARCK ND
1100 AM CDT THU SEP 29 2016

NOTE: "FAIR" INDICATES FEW OR NO CLOUDS BELOW 12,000 FEET WITH NO
SIGNIFICANT WEATHER AND/OR OBSTRUCTIONS TO VISIBILITY.


NDZ001>003-009>011-017-291700-
NORTHWEST NORTH DAKOTA

CITY           SKY/WX    TMP DP  RH WIND       PRES   REMARKS
WILLISTON      SUNNY     62  45  53 SE9       30.25F
MINOT          SUNNY     61  48  62 SE12      30.34S
MINOT AFB      SUNNY     59  47  66 S16       30.33S
$$

NDZ018>021-031>035-040>046-291700-
SOUTHWEST NORTH DAKOTA

CITY           SKY/WX    TMP DP  RH WIND       PRES   REMARKS
BISMARCK       SUNNY     57  48  72 SE13      30.39F
DICKINSON      SUNNY     59  45  59 SE21G28   30.28S
GARRISON         N/A     57  48  72 S13G20    30.35S
HETTINGER ARPT SUNNY     58  45  62 SE15      30.31F
$$

NDZ004>008-012>016-024-026-027-054-291700-
NORTHEAST NORTH DAKOTA

CITY           SKY/WX    TMP DP  RH WIND       PRES   REMARKS
GRAND FORKS    PTSUNNY   59  48  67 S10       30.48S
GRND FRKS AFB  SUNNY     59  48  67 S10       30.47F
DEVILS LAKE    SUNNY     56  49  77 SE13      30.44F
$$

NDZ022-023-025-028>030-036>039-047>053-291700-
SOUTHEAST NORTH DAKOTA

CITY           SKY/WX    TMP DP  RH WIND       PRES   REMARKS
FARGO          CLOUDY    59  46  62 SE6       30.49S
JAMESTOWN      SUNNY     56  49  77 S10       30.45S
$$





USA.gov is the U.S. government's official web portal to all federal, state and local government web resources and services.